Regional Weather Roundup
Issued by NWS

Home | Current Version | Previous Version | Text Only | Print | Product List | Glossary Off
Versions: 1 2 3 4 5 6 7 8 9 10 11 12 13 14 15 16 17 18 19 20 21 22 23 24 25 26 27 28 29 30 31 32 33 34 35 36 37 38 39 40 41 42 43 44 45 46 47 48 49 50

000
ASUS43 KLMK 242302
RWRKY
KENTUCKY REGIONAL WEATHER ROUNDUP
NATIONAL WEATHER SERVICE LOUISVILLE KY
700 PM EDT SUN MAY 24 2015

NOTE "FAIR" INDICATES FEW OR NO CLOUDS BELOW 12,000 FEET
WITH NO SIGNIFICANT WEATHER AND/OR OBSTRUCTIONS TO VISIBILITY.

KYZ001>023-026-027-061>063-070>075-250000-
WESTERN AND SOUTH CENTRAL KENTUCKY

CITY           SKY/WX    TMP DP  RH WIND       PRES   REMARKS
PADUCAH        CLOUDY    83  65  54 S12       29.98F
HENDERSON      PTSUNNY   81  63  54 S18       30.01F
OWENSBORO      MOSUNNY   84  64  50 S16       30.04F
HOPKINSVILLE   MOSUNNY   82  65  57 S13G22    30.05R
BOWLING GREEN  MOSUNNY   83  61  47 SE14      30.09F
GLASGOW        NOT AVBL
$$

KYZ024-025-028>034-038-045-046-053-250000-
NORTH CENTRAL KENTUCKY

CITY           SKY/WX    TMP DP  RH WIND       PRES   REMARKS
LOUISVILLE/SDF MOSUNNY   84  57  39 S17       30.08F
LOUISVILLE/LOU SUNNY     84  57  39 S9G18     30.10F
FORT KNOX      MOSUNNY   82  61  48 S14       30.08F
$$

KYZ035>037-039>044-047>052-055>060-089>105-250000-
NORTHEAST KENTUCKY

CITY           SKY/WX    TMP DP  RH WIND       PRES   REMARKS
LEXINGTON      SUNNY     81  53  37 S14       30.15F
COVINGTON      MOSUNNY   81  52  36 S13G23    30.12F
FRANKFORT      SUNNY     82  54  37 S10       30.12F
$$

KYZ054-064>069-076>088-106>120-250000-
SOUTHEAST KENTUCKY

CITY           SKY/WX    TMP DP  RH WIND       PRES   REMARKS
JACKSON        SUNNY     81  49  32 VRB3      30.20F
LONDON         SUNNY     82  45  27 S8        30.19F
SOMERSET       NOT AVBL
MIDDLESBORO    SUNNY     81  52  36 CALM      30.21F
MONTICELLO     CLEAR     80  58  46 SE13      30.19F
$$



USA.gov is the U.S. government's official web portal to all federal, state and local government web resources and services.